Location: Norton
(51.3000°N, 0.8167°E)
Time: 12:51:02
(UTC+00:00)

BREEZE-M DEB (TANK) - Pass Details

Date: 03 March 2021
Orbit: 308 x 15403 km, 49.5° (Epoch: 16 April)

Event Time Altitude Azimuth Distance (km) Brightness Sun altitude
Rises 19:43:58 0° 270° (W) 2,094 6.7 -19.9°
Reaches altitude 10° 19:45:21 10° 267° (W) 1,402 5.5 -20.1°
Maximum altitude 19:47:56 68° 183° (S) 607 2.4 -20.4°
Enters shadow 19:48:44 52° 124° (SE) 797 2.7 -20.6°
